TimeIST,TemperatureF,Dew PointF,Humidity,Sea Level PressureIn,VisibilityMPH,Wind Direction,Wind SpeedMPH,Gust SpeedMPH,PrecipitationIn,Events,Conditions,WindDirDegrees,DateUTC
1:00 AM,55,53,90,30.26,,SSW,6.7,,,,,200,2013-08-20 00:00:00
6:00 AM,55.4,55.4,100,30.21,6.2,SSW,8.1,-,N/A,,Overcast,210,2013-08-20 05:00:00
7:00 AM,56,55,96,30.25,17,South,8.9,,,,Overcast,190,2013-08-20 06:00:00
7:00 AM,55.4,55.4,100,30.24,6.2,South,8.1,-,N/A,,Overcast,190,2013-08-20 06:00:00
7:30 AM,55.4,55.4,100,30.24,6.2,South,6.9,-,N/A,,Overcast,190,2013-08-20 06:30:00
8:00 AM,57.2,55.4,94,30.21,6.2,South,8.1,-,N/A,Rain,Light Rain,180,2013-08-20 07:00:00
8:30 AM,57.2,55.4,94,30.21,6.2,South,9.2,-,N/A,,Overcast,180,2013-08-20 07:30:00
9:00 AM,57.2,55.4,94,30.24,6.2,South,10.4,-,N/A,,Overcast,180,2013-08-20 08:00:00
9:30 AM,57.2,55.4,94,30.21,6.2,South,12.7,-,N/A,,Mostly Cloudy,180,2013-08-20 08:30:00
10:00 AM,59.0,55.4,88,30.21,6.2,South,11.5,-,N/A,,Mostly Cloudy,190,2013-08-20 09:00:00
10:30 AM,59.0,55.4,88,30.21,6.2,South,13.8,-,N/A,,Mostly Cloudy,190,2013-08-20 09:30:00
11:00 AM,59.0,55.4,88,30.21,6.2,South,11.5,-,N/A,,Mostly Cloudy,170,2013-08-20 10:00:00
11:30 AM,60.8,53.6,77,30.21,6.2,SSW,13.8,-,N/A,,Mostly Cloudy,200,2013-08-20 10:30:00
12:00 PM,60.8,51.8,72,30.21,6.2,South,15.0,-,N/A,,Mostly Cloudy,190,2013-08-20 11:00:00
12:30 PM,59.0,53.6,82,30.21,6.2,South,13.8,-,N/A,,Overcast,190,2013-08-20 11:30:00
1:00 PM,60,53,71,30.22,19,South,15.7,,,Rain,Light Rain,190,2013-08-20 12:00:00
1:00 PM,60.8,53.6,77,30.21,6.2,South,16.1,-,N/A,,Mostly Cloudy,190,2013-08-20 12:00:00
1:30 PM,62.6,53.6,72,30.18,6.2,South,15.0,-,N/A,,Mostly Cloudy,180,2013-08-20 12:30:00
2:00 PM,60.8,53.6,77,30.18,6.2,South,15.0,-,N/A,Rain,Light Rain,180,2013-08-20 13:00:00
2:30 PM,60.8,53.6,77,30.18,6.2,South,16.1,27.6,N/A,Rain,Light Rain,180,2013-08-20 13:30:00
3:00 PM,60.8,53.6,77,30.18,6.2,South,16.1,-,N/A,,Overcast,190,2013-08-20 14:00:00
3:30 PM,59.0,53.6,82,30.18,6.2,South,17.3,-,N/A,,Mostly Cloudy,180,2013-08-20 14:30:00
4:00 PM,59.0,55.4,88,30.15,6.2,South,15.0,-,N/A,,Mostly Cloudy,170,2013-08-20 15:00:00
4:30 PM,59.0,53.6,82,30.15,6.2,South,13.8,-,N/A,,Overcast,170,2013-08-20 15:30:00
5:00 PM,59.0,55.4,88,30.12,6.2,South,17.3,-,N/A,,Mostly Cloudy,170,2013-08-20 16:00:00
5:30 PM,59.0,55.4,88,30.12,4.3,South,15.0,-,N/A,,Light Drizzle,170,2013-08-20 16:30:00
6:00 PM,57.2,57.2,100,30.09,3.7,South,16.1,-,N/A,Rain,Light Rain,170,2013-08-20 17:00:00
7:00 PM,58,57,97,30.10,3,South,15.7,,,Rain,Heavy Freezing Drizzle,170,2013-08-20 18:00:00